Home   Weather   Kristiansand   Past weeks

Flag for Norway Past Weather in Kristiansand, Norway — Yesterday and Last 2 Weeks

Now
46 °F

Clear.


Feels Like: 41 °F
Forecast: 34 / 42 °F
Wind: 10 mph from West

Location: Kristiansand / Kjevik

Current Time: Jan 20, 2017 at 5:22:34 pm

Latest Report: Jan 20, 2017 at 4:50 pm


Visibility: 10 mi

Pressure: 30.36 "Hg

Humidity: 71%

Dew Point: 37 °F

Location of KristiansandLocation

Past Weather in Kristiansand — Graph

°F

Kristiansand Temperature Yesterday

Maximum temperature yesterday: 50 °F (at 12:20 pm)
Minimum temperature yesterday: 37 °F (at 11:20 pm)
Average temperature yesterday: 44 °F

High & Low Weather Summary for the Past Weeks

 TemperatureHumidityPressure
High50 °F (Jan 19, 12:20 pm)100% (Jan 6, 10:50 pm)30.69 "Hg (Jan 6, 10:50 pm)
Low12 °F (Jan 16, 9:50 am)46% (Jan 5, 3:20 pm)28.65 "Hg (Jan 11, 11:50 am)
Average35 °F86%29.95 "Hg
* Reported Jan 5 3:20 pm — Jan 20 3:50 pm, Kristiansand, Weather by CustomWeather, © 2017

Note: Actual official high and low records may vary slightly from our data, if they occured in-between our weather recording intervals... More about our weather records

Advertising

Kristiansand Weather History for the Previous 24 Hours

Scroll right to see more
 ConditionsComfort  
Time TempWeatherWind HumidityBarometerVisibility
3:50 pm
Fri, Jan 20
48 °FSunny.12 mph66%30.36 "Hg10 mi
3:20 pm48 °FSunny.8 mph66%30.36 "Hg10 mi
2:50 pm48 °FSunny.6 mph66%30.36 "Hg10 mi
2:20 pm50 °FPassing clouds.5 mph62%30.36 "HgN/A
1:50 pm50 °FPassing clouds.5 mph62%30.36 "HgN/A
1:20 pm50 °FPassing clouds.8 mph62%30.36 "HgN/A
12:50 pm50 °FPassing clouds.7 mph67%30.39 "HgN/A
12:20 pm48 °FPassing clouds.9 mph66%30.39 "HgN/A
11:50 am48 °FPassing clouds.8 mph66%30.39 "HgN/A
11:20 am48 °FPassing clouds.8 mph66%30.36 "HgN/A
10:50 am46 °FPassing clouds.12 mph71%30.36 "HgN/A
10:20 am45 °FPassing clouds.10 mph76%30.36 "HgN/A
9:50 am45 °FPassing clouds.9 mph76%30.36 "HgN/A
9:20 am45 °FPassing clouds.9 mph71%30.36 "HgN/A
8:50 am46 °FPassing clouds.7 mph66%30.36 "HgN/A
8:20 am46 °FPassing clouds.6 mph66%30.33 "HgN/A
7:50 am46 °FPassing clouds.7 mph71%30.33 "HgN/A
7:20 am45 °FPassing clouds.10 mph76%30.33 "HgN/A
6:50 am43 °FPassing clouds.12 mph81%30.33 "HgN/A
6:20 am43 °FPassing clouds.10 mph81%30.36 "HgN/A
5:50 am43 °FPassing clouds.12 mph81%30.36 "HgN/A
5:20 am43 °FPassing clouds.14 mph81%30.36 "HgN/A
4:50 am43 °FPassing clouds.13 mph87%30.36 "HgN/A
4:20 am43 °FPassing clouds.12 mph81%30.36 "HgN/A
3:50 am43 °FPassing clouds.12 mph81%30.36 "HgN/A
3:20 am43 °FPartly cloudy.13 mph81%30.36 "HgN/A
2:50 am41 °FPassing clouds.9 mph87%30.39 "HgN/A
2:20 am41 °FPassing clouds.7 mph87%30.39 "HgN/A
1:20 am43 °FPassing clouds.6 mph87%30.39 "HgN/A
12:50 am39 °FOvercast.7 mph93%30.39 "HgN/A
12:20 am37 °FPartly cloudy.3 mph87%30.42 "HgN/A
11:50 pm
Thu, Jan 19
41 °FPassing clouds.6 mph87%30.42 "HgN/A
11:20 pm37 °FPassing clouds.2 mph93%30.42 "HgN/A
10:20 pm39 °FClear.3 mph93%30.42 "Hg10 mi
9:50 pm39 °FClear.3 mph93%30.39 "Hg10 mi
9:20 pm41 °FClear.5 mph87%30.39 "Hg10 mi
8:50 pm41 °FClear.9 mph87%30.39 "Hg10 mi
8:20 pm43 °FClear.6 mph81%30.39 "Hg10 mi
7:50 pm45 °FPassing clouds.6 mph81%30.39 "HgN/A
7:20 pm45 °FClear.9 mph81%30.36 "Hg10 mi
6:50 pm45 °FPassing clouds.7 mph81%30.36 "HgN/A
6:20 pm45 °FPassing clouds.7 mph81%30.36 "HgN/A
5:50 pm45 °FPassing clouds.7 mph81%30.36 "HgN/A
5:20 pm45 °FPassing clouds.8 mph81%30.36 "HgN/A
Weather by CustomWeather, © 2017

See weather overviewHow to use our weather pages